TimeEDT,TemperatureF,Dew PointF,Humidity,Sea Level PressureIn,VisibilityMPH,Wind Direction,Wind SpeedMPH,Gust SpeedMPH,PrecipitationIn,Events,Conditions,WindDirDegrees,DateUTC
12:54 AM,55.9,54.0,93,30.14,10.0,Calm,Calm,-,N/A,,Clear,0,2013-09-15 04:54:00
1:54 AM,54.0,53.1,97,30.15,10.0,Calm,Calm,-,N/A,,Partly Cloudy,0,2013-09-15 05:54:00
2:54 AM,53.1,51.1,93,30.15,10.0,Calm,Calm,-,N/A,,Partly Cloudy,0,2013-09-15 06:54:00
3:12 AM,51.8,51.8,100,30.20,10.0,Calm,Calm,-,N/A,,Mostly Cloudy,0,2013-09-15 07:12:00
3:42 AM,51.8,51.8,100,30.21,2.0,Calm,Calm,-,N/A,,Overcast,0,2013-09-15 07:42:00
3:44 AM,51.8,51.8,100,30.21,1.2,Calm,Calm,-,N/A,,Overcast,0,2013-09-15 07:44:00
3:52 AM,51.8,51.8,100,30.21,0.5,Calm,Calm,-,N/A,Fog,Fog,0,2013-09-15 07:52:00
3:54 AM,52.0,52.0,100,30.16,0.5,Calm,Calm,-,N/A,Fog,Fog,0,2013-09-15 07:54:00
4:16 AM,53.6,51.8,94,30.21,1.0,Calm,Calm,-,N/A,,Overcast,0,2013-09-15 08:16:00
4:20 AM,53.6,51.8,94,30.21,2.0,Calm,Calm,-,N/A,,Overcast,0,2013-09-15 08:20:00
4:28 AM,53.6,51.8,94,30.21,7.0,Calm,Calm,-,N/A,,Overcast,0,2013-09-15 08:28:00
4:36 AM,53.6,51.8,94,30.21,9.0,Calm,Calm,-,N/A,,Overcast,0,2013-09-15 08:36:00
4:54 AM,53.1,52.0,96,30.17,10.0,Calm,Calm,-,N/A,,Overcast,0,2013-09-15 08:54:00
5:54 AM,54.0,53.1,97,30.18,10.0,Calm,Calm,-,N/A,,Overcast,0,2013-09-15 09:54:00
6:54 AM,54.0,52.0,93,30.19,10.0,Calm,Calm,-,N/A,,Mostly Cloudy,0,2013-09-15 10:54:00
7:54 AM,55.0,53.1,93,30.22,10.0,Calm,Calm,-,N/A,,Overcast,0,2013-09-15 11:54:00
8:54 AM,57.0,55.0,93,30.22,10.0,Calm,Calm,-,N/A,,Mostly Cloudy,0,2013-09-15 12:54:00
9:35 AM,57.2,55.4,94,30.26,10.0,Calm,Calm,-,N/A,,Overcast,0,2013-09-15 13:35:00
9:44 AM,60.8,55.4,82,30.27,10.0,Calm,Calm,-,N/A,,Overcast,0,2013-09-15 13:44:00
9:54 AM,59.0,55.9,90,30.23,10.0,Calm,Calm,-,N/A,,Overcast,0,2013-09-15 13:54:00
10:54 AM,64.9,55.9,73,30.22,10.0,Calm,Calm,-,N/A,,Overcast,0,2013-09-15 14:54:00
11:32 AM,69.8,57.2,64,30.26,10.0,South,8.1,-,N/A,,Scattered Clouds,170,2013-09-15 15:32:00
11:39 AM,68.0,57.2,68,30.26,10.0,South,4.6,-,N/A,,Mostly Cloudy,170,2013-09-15 15:39:00
11:54 AM,70.0,57.9,65,30.21,10.0,SSE,9.2,-,N/A,,Mostly Cloudy,160,2013-09-15 15:54:00
12:54 PM,70.0,57.0,63,30.20,10.0,SSE,6.9,-,N/A,,Mostly Cloudy,160,2013-09-15 16:54:00
1:54 PM,73.9,57.9,57,30.18,10.0,SSE,6.9,-,N/A,,Scattered Clouds,160,2013-09-15 17:54:00
2:54 PM,73.9,57.9,57,30.16,10.0,ESE,6.9,-,N/A,,Mostly Cloudy,110,2013-09-15 18:54:00
3:54 PM,77.0,55.9,48,30.13,10.0,South,13.8,19.6,N/A,,Scattered Clouds,190,2013-09-15 19:54:00
4:54 PM,73.9,57.0,55,30.13,10.0,South,11.5,-,N/A,,Clear,170,2013-09-15 20:54:00
5:54 PM,73.9,57.9,57,30.13,10.0,South,13.8,-,N/A,,Clear,170,2013-09-15 21:54:00
6:54 PM,72.0,60.1,66,30.14,10.0,South,6.9,-,N/A,,Scattered Clouds,180,2013-09-15 22:54:00
7:54 PM,68.0,60.1,76,30.15,10.0,SE,3.5,-,N/A,,Clear,140,2013-09-15 23:54:00
8:54 PM,66.9,60.1,79,30.16,10.0,Calm,Calm,-,N/A,,Clear,0,2013-09-16 00:54:00
9:54 PM,64.0,60.1,87,30.17,10.0,Calm,Calm,-,N/A,,Clear,0,2013-09-16 01:54:00
10:54 PM,62.1,60.1,93,30.17,10.0,Calm,Calm,-,N/A,,Clear,0,2013-09-16 02:54:00
11:54 PM,61.0,59.0,93,30.17,10.0,Calm,Calm,-,N/A,,Clear,0,2013-09-16 03:54:00